Location: Dillon
(41.1766°N, 107.0923°W)
Time: 17:01:09
(UTC+00:00)

DIWATA 2B (PO-101) - Pass Details

Date: 02 July 2022
Orbit: 583 x 599 km, 98.0° (Epoch: 18 August)

Event Time Altitude Azimuth Distance (km) Brightness Sun altitude
Exits shadow 09:49:58 26° 247° (WSW) 1,182 ? -16.1°
Maximum altitude 09:50:40 28° 264° (W) 1,145 ? -16.1°
Drops below altitude 10° 09:54:18 10° 323° (NW) 1,947 ? -15.6°
Sets 09:56:44 0° 336° (NNW) 2,855 ? -15.4°
